Time,TemperatureF,DewpointF,PressureIn,WindDirection,WindDirectionDegrees,WindSpeedMPH,WindSpeedGustMPH,Humidity,HourlyPrecipIn,Conditions,Clouds,dailyrainin,SoftwareType,DateUTC
2013-02-22 00:08:00,15.6,13.7,30.15,West,270,2.2,-999.0,92,-99.99,,,0.00,Acu-Link.com,2013-02-22 05:08:00,
2013-02-22 00:23:00,16.3,14.1,30.16,NNE,22,2.2,-999.0,91,-99.99,,,0.00,Acu-Link.com,2013-02-22 05:23:00,
2013-02-22 00:38:00,17.4,14.5,30.14,ESE,112,4.2,-999.0,88,-99.99,,,0.00,Acu-Link.com,2013-02-22 05:38:00,
2013-02-22 00:54:00,18.1,14.6,30.14,South,180,3.2,-999.0,86,-99.99,,,0.00,Acu-Link.com,2013-02-22 05:54:00,
2013-02-22 01:09:00,18.1,14.4,30.13,SSE,157,2.7,-999.0,85,-99.99,,,0.00,Acu-Link.com,2013-02-22 06:09:00,
2013-02-22 01:24:00,18.3,14.6,30.14,NE,45,2.7,-999.0,85,-99.99,,,0.00,Acu-Link.com,2013-02-22 06:24:00,
2013-02-22 01:39:00,18.9,15.2,30.15,SW,225,2.2,-999.0,85,-99.99,,,0.00,Acu-Link.com,2013-02-22 06:39:00,
2013-02-22 01:54:00,19.0,14.7,30.15,SW,225,3.2,-999.0,83,-99.99,,,0.00,Acu-Link.com,2013-02-22 06:54:00,
2013-02-22 02:10:00,19.2,14.9,30.15,East,90,1.7,-999.0,83,-99.99,,,0.00,Acu-Link.com,2013-02-22 07:10:00,
2013-02-22 02:25:00,19.2,14.9,30.16,East,90,2.2,-999.0,83,-99.99,,,0.00,Acu-Link.com,2013-02-22 07:25:00,
2013-02-22 02:40:00,19.4,15.1,30.16,South,180,2.7,-999.0,83,-99.99,,,0.00,Acu-Link.com,2013-02-22 07:40:00,
2013-02-22 02:55:00,19.4,15.1,30.15,West,270,1.7,-999.0,83,-99.99,,,0.00,Acu-Link.com,2013-02-22 07:55:00,
2013-02-22 03:10:00,19.6,15.0,30.15,SSE,157,2.2,-999.0,82,-99.99,,,0.00,Acu-Link.com,2013-02-22 08:10:00,
2013-02-22 03:26:00,19.9,15.3,30.15,ESE,112,6.3,-999.0,82,-99.99,,,0.00,Acu-Link.com,2013-02-22 08:26:00,
2013-02-22 03:41:00,20.3,15.1,30.13,South,180,3.2,-999.0,80,-99.99,,,0.00,Acu-Link.com,2013-02-22 08:41:00,
2013-02-22 03:56:00,20.7,15.2,30.12,SW,225,5.8,-999.0,79,-99.99,,,0.00,Acu-Link.com,2013-02-22 08:56:00,
2013-02-22 04:20:00,20.8,15.6,30.12,WSW,247,2.2,-999.0,80,-99.99,,,0.00,Acu-Link.com,2013-02-22 09:20:00,
2013-02-22 04:35:00,21.2,15.4,30.10,ESE,112,5.3,-999.0,78,-99.99,,,0.00,Acu-Link.com,2013-02-22 09:35:00,
2013-02-22 04:50:00,21.7,15.9,30.10,ENE,67,3.2,-999.0,78,-99.99,,,0.00,Acu-Link.com,2013-02-22 09:50:00,
2013-02-22 05:05:00,21.2,15.4,30.10,South,180,5.3,-999.0,78,-99.99,,,0.00,Acu-Link.com,2013-02-22 10:05:00,
2013-02-22 05:20:00,20.8,15.3,30.09,South,180,3.2,-999.0,79,-99.99,,,0.00,Acu-Link.com,2013-02-22 10:20:00,
2013-02-22 05:35:00,20.8,15.3,30.10,SE,135,2.7,-999.0,79,-99.99,,,0.00,Acu-Link.com,2013-02-22 10:35:00,
2013-02-22 05:51:00,21.2,15.7,30.12,WSW,247,2.2,-999.0,79,-99.99,,,0.00,Acu-Link.com,2013-02-22 10:51:00,
2013-02-22 06:06:00,21.2,15.7,30.11,ESE,112,4.2,-999.0,79,-99.99,,,0.00,Acu-Link.com,2013-02-22 11:06:00,
2013-02-22 06:21:00,21.2,15.7,30.11,NW,315,4.2,-999.0,79,-99.99,,,0.00,Acu-Link.com,2013-02-22 11:21:00,
2013-02-22 06:36:00,21.2,15.7,30.10,NNW,337,4.2,-999.0,79,-99.99,,,0.00,Acu-Link.com,2013-02-22 11:36:00,
2013-02-22 06:52:00,21.4,15.9,30.09,South,180,6.8,-999.0,79,-99.99,,,0.00,Acu-Link.com,2013-02-22 11:52:00,
2013-02-22 07:07:00,21.4,15.9,30.09,SW,225,3.7,-999.0,79,-99.99,,,0.00,Acu-Link.com,2013-02-22 12:07:00,
2013-02-22 07:22:00,21.2,16.0,30.09,NNW,337,4.2,-999.0,80,-99.99,,,0.00,Acu-Link.com,2013-02-22 12:22:00,
2013-02-22 07:37:00,21.0,16.1,30.08,ENE,67,11.4,-999.0,81,-99.99,,,0.00,Acu-Link.com,2013-02-22 12:37:00,
2013-02-22 07:52:00,20.8,16.2,30.08,ESE,112,2.7,-999.0,82,-99.99,,,0.00,Acu-Link.com,2013-02-22 12:52:00,
2013-02-22 08:08:00,21.4,16.5,30.08,ESE,112,7.8,-999.0,81,-99.99,,,0.00,Acu-Link.com,2013-02-22 13:08:00,
2013-02-22 08:23:00,21.9,16.7,30.07,SE,135,5.3,-999.0,80,-99.99,,,0.00,Acu-Link.com,2013-02-22 13:23:00,
2013-02-22 08:38:00,22.1,16.6,30.08,NNW,337,4.7,-999.0,79,-99.99,,,0.00,Acu-Link.com,2013-02-22 13:38:00,
2013-02-22 08:53:00,22.1,16.6,30.07,SSW,202,6.3,-999.0,79,-99.99,,,0.00,Acu-Link.com,2013-02-22 13:53:00,
2013-02-22 09:08:00,22.3,16.8,30.06,ESE,112,4.7,-999.0,79,-99.99,,,0.00,Acu-Link.com,2013-02-22 14:08:00,
2013-02-22 09:24:00,22.1,16.6,30.05,ESE,112,8.9,-999.0,79,-99.99,,,0.00,Acu-Link.com,2013-02-22 14:24:00,
2013-02-22 09:39:00,22.3,17.4,30.05,ESE,112,7.8,-999.0,81,-99.99,,,0.00,Acu-Link.com,2013-02-22 14:39:00,
2013-02-22 09:54:00,22.5,18.1,30.05,WSW,247,5.8,-999.0,83,-99.99,,,0.00,Acu-Link.com,2013-02-22 14:54:00,
2013-02-22 10:09:00,21.7,18.2,30.05,ENE,67,5.3,-999.0,86,-99.99,,,0.00,Acu-Link.com,2013-02-22 15:09:00,
2013-02-22 10:25:00,21.9,19.4,30.05,WSW,247,5.8,-999.0,90,-99.99,,,0.00,Acu-Link.com,2013-02-22 15:25:00,
2013-02-22 10:40:00,22.1,19.9,30.06,NE,45,6.3,-999.0,91,-99.99,,,0.00,Acu-Link.com,2013-02-22 15:40:00,
2013-02-22 10:56:00,22.5,20.8,30.06,ENE,67,2.7,-999.0,93,-99.99,,,0.00,Acu-Link.com,2013-02-22 15:56:00,
2013-02-22 11:12:00,21.9,20.9,30.06,South,180,6.3,-999.0,96,-99.99,,,0.00,Acu-Link.com,2013-02-22 16:12:00,
2013-02-22 11:27:00,22.3,21.6,30.06,West,270,3.2,-999.0,97,-99.99,,,0.00,Acu-Link.com,2013-02-22 16:27:00,
2013-02-22 11:42:00,23.2,22.5,30.05,ESE,112,4.2,-999.0,97,-99.99,,,0.00,Acu-Link.com,2013-02-22 16:42:00,
2013-02-22 11:57:00,22.8,22.1,30.05,WNW,292,7.8,-999.0,97,-99.99,,,0.00,Acu-Link.com,2013-02-22 16:57:00,
2013-02-22 12:13:00,23.0,22.5,30.05,NNW,337,4.2,-999.0,98,-99.99,,,0.00,Acu-Link.com,2013-02-22 17:13:00,
2013-02-22 12:28:00,23.0,22.5,30.03,ESE,112,3.2,-999.0,98,-99.99,,,0.00,Acu-Link.com,2013-02-22 17:28:00,
2013-02-22 12:43:00,23.0,22.8,30.03,WSW,247,4.2,-999.0,99,-99.99,,,0.00,Acu-Link.com,2013-02-22 17:43:00,
2013-02-22 12:58:00,22.6,22.4,30.02,WSW,247,2.7,-999.0,99,-99.99,,,0.00,Acu-Link.com,2013-02-22 17:58:00,
2013-02-22 13:13:00,22.8,22.6,30.03,SW,225,4.7,-999.0,99,-99.99,,,0.00,Acu-Link.com,2013-02-22 18:13:00,
2013-02-22 13:29:00,22.8,22.6,30.01,WSW,247,4.7,-999.0,99,-99.99,,,0.00,Acu-Link.com,2013-02-22 18:29:00,
2013-02-22 13:44:00,22.6,22.4,30.01,SW,225,2.2,-999.0,99,-99.99,,,0.00,Acu-Link.com,2013-02-22 18:44:00,
2013-02-22 13:59:00,22.8,22.6,30.00,SSW,202,5.8,-999.0,99,-99.99,,,0.00,Acu-Link.com,2013-02-22 18:59:00,
2013-02-22 14:14:00,23.0,22.8,30.00,West,270,3.2,-999.0,99,-99.99,,,0.00,Acu-Link.com,2013-02-22 19:14:00,
2013-02-22 14:29:00,23.0,22.8,30.02,NE,45,4.7,-999.0,99,-99.99,,,0.00,Acu-Link.com,2013-02-22 19:29:00,
2013-02-22 14:45:00,23.2,23.0,30.01,NW,315,3.2,-999.0,99,-99.99,,,0.00,Acu-Link.com,2013-02-22 19:45:00,
2013-02-22 15:00:00,23.9,23.7,30.00,SSW,202,2.7,-999.0,99,-99.99,,,0.00,Acu-Link.com,2013-02-22 20:00:00,
2013-02-22 15:15:00,24.6,24.4,29.99,WSW,247,2.7,-999.0,99,-99.99,,,0.00,Acu-Link.com,2013-02-22 20:15:00,
2013-02-22 15:30:00,24.8,24.6,30.00,NNW,337,0.0,-999.0,99,-99.99,,,0.00,Acu-Link.com,2013-02-22 20:30:00,
2013-02-22 15:45:00,24.8,24.6,30.01,SW,225,3.7,-999.0,99,-99.99,,,0.00,Acu-Link.com,2013-02-22 20:45:00,
2013-02-22 16:01:00,25.0,24.8,30.01,SSW,202,4.2,-999.0,99,-99.99,,,0.00,Acu-Link.com,2013-02-22 21:01:00,
2013-02-22 16:16:00,24.8,24.6,30.00,WNW,292,2.2,-999.0,99,-99.99,,,0.00,Acu-Link.com,2013-02-22 21:16:00,
2013-02-22 16:31:00,25.2,25.0,30.00,WNW,292,0.0,-999.0,99,-99.99,,,0.00,Acu-Link.com,2013-02-22 21:31:00,
2013-02-22 16:46:00,25.0,24.8,29.99,SSW,202,2.7,-999.0,99,-99.99,,,0.00,Acu-Link.com,2013-02-22 21:46:00,
2013-02-22 17:02:00,25.2,25.0,29.98,NNE,22,2.2,-999.0,99,-99.99,,,0.00,Acu-Link.com,2013-02-22 22:02:00,
2013-02-22 17:17:00,25.0,24.8,29.99,WSW,247,2.7,-999.0,99,-99.99,,,0.00,Acu-Link.com,2013-02-22 22:17:00,
2013-02-22 17:32:00,24.4,24.2,29.99,WSW,247,2.2,-999.0,99,-99.99,,,0.00,Acu-Link.com,2013-02-22 22:32:00,
2013-02-22 17:47:00,24.6,24.4,29.99,West,270,3.2,-999.0,99,-99.99,,,0.00,Acu-Link.com,2013-02-22 22:47:00,
2013-02-22 18:02:00,24.4,24.2,29.99,West,270,2.2,-999.0,99,-99.99,,,0.00,Acu-Link.com,2013-02-22 23:02:00,
2013-02-22 18:18:00,24.4,24.2,29.99,West,270,3.2,-999.0,99,-99.99,,,0.00,Acu-Link.com,2013-02-22 23:18:00,
2013-02-22 18:33:00,24.4,24.2,29.98,WNW,292,1.7,-999.0,99,-99.99,,,0.00,Acu-Link.com,2013-02-22 23:33:00,
2013-02-22 18:48:00,24.4,24.2,29.98,West,270,3.7,-999.0,99,-99.99,,,0.00,Acu-Link.com,2013-02-22 23:48:00,
2013-02-22 19:03:00,24.4,24.2,29.98,NNW,337,2.7,-999.0,99,-99.99,,,0.00,Acu-Link.com,2013-02-23 00:03:00,
2013-02-22 19:18:00,24.4,24.2,29.98,ESE,112,2.7,-999.0,99,-99.99,,,0.00,Acu-Link.com,2013-02-23 00:18:00,
2013-02-22 19:34:00,24.6,24.4,29.98,NW,315,2.7,-999.0,99,-99.99,,,0.00,Acu-Link.com,2013-02-23 00:34:00,
2013-02-22 19:49:00,24.6,24.4,29.98,West,270,2.2,-999.0,99,-99.99,,,0.00,Acu-Link.com,2013-02-23 00:49:00,
2013-02-22 20:04:00,24.4,24.2,29.98,SW,225,4.2,-999.0,99,-99.99,,,0.00,Acu-Link.com,2013-02-23 01:04:00,
2013-02-22 20:19:00,24.4,24.2,29.99,SE,135,0.0,-999.0,99,-99.99,,,0.00,Acu-Link.com,2013-02-23 01:19:00,
2013-02-22 20:34:00,24.6,24.4,29.99,SW,225,2.7,-999.0,99,-99.99,,,0.00,Acu-Link.com,2013-02-23 01:34:00,
2013-02-22 20:50:00,24.6,24.4,29.99,NNW,337,1.1,-999.0,99,-99.99,,,0.00,Acu-Link.com,2013-02-23 01:50:00,
2013-02-22 21:05:00,24.6,24.4,29.98,NNE,22,4.2,-999.0,99,-99.99,,,0.00,Acu-Link.com,2013-02-23 02:05:00,
2013-02-22 21:20:00,24.8,24.6,29.99,ESE,112,2.2,-999.0,99,-99.99,,,0.00,Acu-Link.com,2013-02-23 02:20:00,
2013-02-22 21:35:00,24.8,24.6,29.98,WNW,292,0.0,-999.0,99,-99.99,,,0.00,Acu-Link.com,2013-02-23 02:35:00,
2013-02-22 21:51:00,24.8,24.6,29.98,West,270,1.7,-999.0,99,-99.99,,,0.00,Acu-Link.com,2013-02-23 02:51:00,
2013-02-22 22:06:00,24.8,24.6,29.98,South,180,2.2,-999.0,99,-99.99,,,0.00,Acu-Link.com,2013-02-23 03:06:00,
2013-02-22 22:21:00,24.8,24.6,29.97,West,270,2.2,-999.0,99,-99.99,,,0.00,Acu-Link.com,2013-02-23 03:21:00,
2013-02-22 22:36:00,24.8,24.6,29.98,South,180,0.0,-999.0,99,-99.99,,,0.00,Acu-Link.com,2013-02-23 03:36:00,
2013-02-22 22:51:00,24.8,24.6,29.98,WSW,247,1.7,-999.0,99,-99.99,,,0.00,Acu-Link.com,2013-02-23 03:51:00,
2013-02-22 23:07:00,24.8,24.6,29.97,West,270,4.2,-999.0,99,-99.99,,,0.00,Acu-Link.com,2013-02-23 04:07:00,
2013-02-22 23:22:00,24.8,24.6,29.98,WSW,247,2.2,-999.0,99,-99.99,,,0.00,Acu-Link.com,2013-02-23 04:22:00,
2013-02-22 23:37:00,25.0,24.8,29.97,NNE,22,0.0,-999.0,99,-99.99,,,0.00,Acu-Link.com,2013-02-23 04:37:00,
2013-02-22 23:52:00,25.0,24.8,29.97,NNE,22,1.7,-999.0,99,-99.99,,,0.00,Acu-Link.com,2013-02-23 04:52:00,